Location: Terre Du Lac
(37.9120°N, 90.6250°W)
Time: 13:56:42
(UTC-05:00)

HST - Visible Passes

Search period start: 30 October 2014 00:00
Search period end: 08 November 2014 23:00
Orbit: 546 x 550 km, 28.5° (Epoch: 30 October)

Date Brightness Start Highest point End Pass type
(mag) Time Alt. Az. Time Alt. Az. Time Alt. Az.
30 Oct 2.6 19:10:22 10° SW 19:13:39 22° S 19:16:22 13° SE visible
30 Oct 3.8 20:51:41 10° SW 20:51:55 11° SW 20:51:55 11° SW visible
31 Oct 2.7 19:02:57 10° SW 19:06:13 22° S 19:09:29 10° SE visible
31 Oct 3.7 20:44:35 10° SW 20:45:03 12° SW 20:45:03 12° SW visible
01 Nov 2.8 18:55:34 10° SW 18:58:47 21° S 19:02:00 10° SE visible
01 Nov 3.7 20:37:39 10° SW 20:38:13 11° SW 20:38:13 11° SW visible
02 Nov 2.9 17:48:14 10° SW 17:51:20 20° S 17:54:26 10° SE visible
02 Nov 3.7 19:31:18 10° SSW 19:31:27 10° SSW 19:31:27 10° SSW visible
03 Nov 3.1 17:40:57 10° SW 17:43:52 18° S 17:46:47 10° SE visible
04 Nov 3.3 17:33:45 10° SW 17:36:23 16° SSW 17:39:01 10° SSE visible
05 Nov 3.4 17:26:40 10° SW 17:28:53 14° SSW 17:31:06 10° SSE visible
